Regional Weather Roundup
Issued by NWS

Home | Current Version | Previous Version | Graphics & Text | Print | Product List | Glossary On
Versions: 1 2 3 4 5 6 7 8 9 10 11 12 13 14 15 16 17 18 19 20 21 22 23 24 25 26 27 28 29 30 31 32 33 34 35 36 37 38 39 40 41 42 43 44 45 46 47 48 49 50
000
ASUS45 KCYS 011110
RWRWY

WYOMING REGIONAL WEATHER ROUNDUP
NATIONAL WEATHER SERVICE CHEYENNE WY
500 AM MDT SAT AUG 01 2015

NOTE:  "FAIR" INDICATES FEW OR NO CLOUDS BELOW 12,000 FEET
WITH NO SIGNIFICANT WEATHER AND/OR OBSTRUCTIONS TO VISIBILITY.

WYZ001-011200-
YELLOWSTONE NATIONAL PARK

CITY           SKY/WX    TMP DP  RH WIND       PRES   REMARKS
LK YELLOWSTONE   N/A     37  30  75 NW3       30.43F
W YELLOWSTONE  NOT AVBL

$$
WYZ002>013-054>058-071-098>099-011200-
NORTHERN WYOMING

CITY           SKY/WX    TMP DP  RH WIND       PRES   REMARKS
JACKSON        NOT AVBL
CODY           FAIR      64  30  27 SW8       30.19S
GREYBULL       FAIR      61  38  42 S7        30.09S
WORLAND        FAIR      60  33  36 S6        30.11S
SHERIDAN       FAIR      62  41  46 SE3       30.10S
BUFFALO        FAIR      67  36  31 NW10      30.16S
GILLETTE       FAIR      65  49  56 S8        30.09F
HULETT         FAIR      64  50  59 SW6       30.08F
NEWCASTLE      FAIR      68  45  42 E3        30.09F

$$
WYZ014>020-022>026-101>103-011200-
CENTRAL WYOMING

CITY           SKY/WX    TMP DP  RH WIND       PRES   REMARKS
BIG PINEY      FAIR      47  31  53 W3        30.32F
PINEDALE       FAIR      43  34  70 NW6       30.33S
DUBOIS         FAIR      48  30  49 NW9       30.35F
LANDER         FAIR      65  28  24 SW6       30.20F
RIVERTON       FAIR      60  34  37 NW14      30.20F
CASPER         FAIR      51  39  63 W5        30.18S
DOUGLAS        FAIR      57  49  74 NW7       30.15S

$$
WYZ021-027>030-104>119-011200-
SOUTHERN WYOMING

CITY           SKY/WX    TMP DP  RH WIND       PRES   REMARKS
EVANSTON       FAIR      55  27  34 SE5       30.32F
KEMMERER       FAIR      52  32  46 NW8       30.33F
FORT BRIDGER   SUNNY     59  27  29 W7        30.34S
ROCK SPRINGS   FAIR      58  26  29 CALM      30.28S
DIXON          FAIR      47  33  58 CALM      30.30S
RAWLINS        FAIR      49  37  63 NE3       30.27S
SARATOGA       FAIR      50  37  62 SW3       30.30S
LARAMIE        FAIR      51  44  77 S8        30.30F
CHEYENNE       FAIR      54  49  83 W7        30.23F
TORRINGTON     FAIR      62  52  69 CALM      30.09F
PINE BLUFFS    FAIR      59  54  82 SW7       30.19S

$$



USA.gov is the U.S. government's official web portal to all federal, state and local government web resources and services.